OHDEN LTFH-LBBG

Flight info

Callsign OHDEN
Flight time 2h 5m
Altitude 24000
Route BAFRA UW86 GERZE W86 SIN UW90 DEVMU UL852 NEGEM L852 RITAG Y195 NESAR
Aircraft PC12/L-SDFGRWY/S

Departure

Time 2026-04-24 04:52
Airport Samsun-Çarşamba Airport (LTFH)

Arrival

Time 2026-04-24 06:57
Airport Burgas Airport (LBBG)
Time Latitude Longitude Altitude Speed Heading
2026-04-24 04:52 41.21633 36.62016 2414 ft 168 kts 134°
2026-04-24 04:52 41.20804 36.63173 2810 ft 176 kts 134°
2026-04-24 04:53 41.19948 36.64366 3197 ft 181 kts 134°
2026-04-24 04:53 41.19178 36.65678 3573 ft 184 kts 116°
2026-04-24 04:53 41.18870 36.67328 3968 ft 187 kts 91°
2026-04-24 04:53 41.19113 36.69028 4363 ft 189 kts 65°
2026-04-24 04:54 41.19874 36.70438 4766 ft 189 kts 43°
2026-04-24 04:54 41.20845 36.71653 5155 ft 193 kts 42°
2026-04-24 04:54 41.21827 36.72892 5538 ft 196 kts 43°
2026-04-24 04:54 41.22821 36.74153 5930 ft 199 kts 43°
2026-04-24 04:55 41.23847 36.75395 6325 ft 200 kts 35°
2026-04-24 04:55 41.25084 36.76151 6689 ft 199 kts 12°
2026-04-24 04:55 41.26456 36.76242 7068 ft 198 kts 349°
2026-04-24 04:55 41.27749 36.75650 7446 ft 196 kts 326°
2026-04-24 04:56 41.28784 36.74496 7827 ft 193 kts 309°
2026-04-24 04:56 41.29718 36.73191 8223 ft 196 kts 309°
2026-04-24 04:56 41.30667 36.71878 8605 ft 198 kts 308°
2026-04-24 04:56 41.31627 36.70546 9002 ft 200 kts 308°
2026-04-24 04:57 41.32579 36.69221 9390 ft 201 kts 307°
2026-04-24 04:57 41.33545 36.67875 9798 ft 202 kts 307°
2026-04-24 04:57 41.34516 36.66520 10170 ft 202 kts 306°
2026-04-24 04:57 41.35493 36.65157 10539 ft 203 kts 306°
2026-04-24 04:58 41.36470 36.63794 10909 ft 204 kts 305°
2026-04-24 04:58 41.37448 36.62430 11284 ft 204 kts 305°
2026-04-24 04:58 41.38413 36.61083 11657 ft 203 kts 304°
2026-04-24 04:58 41.39383 36.59727 12041 ft 202 kts 304°
2026-04-24 04:59 41.40348 36.58378 12432 ft 200 kts 303°
2026-04-24 04:59 41.41308 36.57035 12831 ft 200 kts 303°
2026-04-24 04:59 41.42262 36.55700 13221 ft 198 kts 302°
2026-04-24 04:59 41.43214 36.54366 13623 ft 198 kts 301°
2026-04-24 05:00 41.44164 36.53034 14003 ft 198 kts 301°
2026-04-24 05:00 41.45110 36.51708 14362 ft 197 kts 301°
2026-04-24 05:00 41.46056 36.50381 14727 ft 197 kts 301°
2026-04-24 05:00 41.46988 36.49074 15090 ft 197 kts 301°
2026-04-24 05:01 41.47929 36.47753 15463 ft 196 kts 301°
2026-04-24 05:01 41.48871 36.46431 15842 ft 196 kts 301°
2026-04-24 05:01 41.49807 36.45115 16225 ft 195 kts 301°
2026-04-24 05:01 41.50744 36.43798 16613 ft 195 kts 301°
2026-04-24 05:02 41.51676 36.42488 16964 ft 194 kts 301°
2026-04-24 05:02 41.52602 36.41187 17307 ft 192 kts 301°
2026-04-24 05:02 41.53520 36.39896 17652 ft 191 kts 301°
2026-04-24 05:02 41.54417 36.38632 18001 ft 189 kts 300°
2026-04-24 05:03 41.55317 36.37364 18337 ft 187 kts 300°
2026-04-24 05:03 41.56213 36.36101 18649 ft 186 kts 300°
2026-04-24 05:03 41.57011 36.34789 18961 ft 174 kts 286°
2026-04-24 05:03 41.57369 36.33313 19253 ft 163 kts 269°
2026-04-24 05:04 41.57315 36.31849 19528 ft 159 kts 254°
2026-04-24 05:04 41.57048 36.30411 19801 ft 161 kts 254°
2026-04-24 05:04 41.56785 36.28945 20077 ft 163 kts 254°
2026-04-24 05:04 41.56519 36.27472 20351 ft 164 kts 254°
2026-04-24 05:05 41.56250 36.25989 20629 ft 165 kts 254°
2026-04-24 05:05 41.55978 36.24499 20959 ft 165 kts 254°
2026-04-24 05:05 41.55795 36.23496 21188 ft 164 kts 255°
2026-04-24 05:05 41.55527 36.22028 21479 ft 165 kts 255°
2026-04-24 05:06 41.55254 36.20535 21796 ft 165 kts 255°
2026-04-24 05:06 41.54981 36.19044 22118 ft 165 kts 255°
2026-04-24 05:06 41.54708 36.17549 22386 ft 167 kts 255°
2026-04-24 05:06 41.54432 36.16042 22656 ft 168 kts 255°
2026-04-24 05:07 41.54152 36.14519 22932 ft 169 kts 255°
2026-04-24 05:07 41.53873 36.12996 23209 ft 169 kts 255°
2026-04-24 05:07 41.53595 36.11476 23478 ft 165 kts 255°
2026-04-24 05:07 41.53329 36.10024 23627 ft 156 kts 255°
2026-04-24 05:08 41.53080 36.08666 23732 ft 151 kts 255°
2026-04-24 05:08 41.52824 36.07283 23831 ft 156 kts 255°
2026-04-24 05:08 41.52557 36.05841 23933 ft 163 kts 255°
2026-04-24 05:08 41.52279 36.04334 23966 ft 172 kts 255°
2026-04-24 05:09 41.51986 36.02744 23973 ft 181 kts 255°
2026-04-24 05:09 41.51680 36.01082 23972 ft 187 kts 255°
2026-04-24 05:09 41.51364 35.99370 23978 ft 192 kts 256°
2026-04-24 05:09 41.51080 35.97604 23977 ft 196 kts 263°
2026-04-24 05:10 41.51259 35.95767 23979 ft 207 kts 282°
2026-04-24 05:10 41.51917 35.94002 23979 ft 215 kts 290°
2026-04-24 05:10 41.52650 35.92248 23972 ft 217 kts 290°
2026-04-24 05:10 41.53374 35.90499 23979 ft 218 kts 290°
2026-04-24 05:11 41.54105 35.88710 23976 ft 219 kts 290°
2026-04-24 05:11 41.54835 35.86919 23977 ft 220 kts 290°
2026-04-24 05:11 41.55569 35.85123 23977 ft 220 kts 290°
2026-04-24 05:11 41.56303 35.83326 23976 ft 220 kts 290°
2026-04-24 05:12 41.57037 35.81529 23973 ft 221 kts 290°
2026-04-24 05:12 41.57772 35.79727 23976 ft 220 kts 290°
2026-04-24 05:12 41.58505 35.77928 23978 ft 220 kts 290°
2026-04-24 05:12 41.59236 35.76131 23978 ft 220 kts 290°
2026-04-24 05:13 41.60687 35.72566 23976 ft 219 kts 290°
2026-04-24 05:13 41.61417 35.70768 23979 ft 220 kts 290°
2026-04-24 05:13 41.62147 35.68970 23978 ft 220 kts 290°
2026-04-24 05:14 41.62877 35.67172 23977 ft 220 kts 290°
2026-04-24 05:14 41.63607 35.65372 23974 ft 221 kts 290°
2026-04-24 05:14 41.64332 35.63585 23975 ft 221 kts 290°
2026-04-24 05:14 41.65064 35.61779 23978 ft 221 kts 290°
2026-04-24 05:15 41.65796 35.59973 23978 ft 221 kts 290°
2026-04-24 05:15 41.66526 35.58169 23979 ft 221 kts 290°
2026-04-24 05:15 41.67259 35.56356 23978 ft 221 kts 290°
2026-04-24 05:15 41.67989 35.54549 23980 ft 221 kts 290°
2026-04-24 05:16 41.68721 35.52738 23980 ft 221 kts 290°
2026-04-24 05:16 41.69452 35.50928 23980 ft 221 kts 290°
2026-04-24 05:16 41.70184 35.49113 23978 ft 221 kts 290°
2026-04-24 05:16 41.70905 35.47324 23981 ft 221 kts 290°
2026-04-24 05:17 41.71634 35.45515 23981 ft 221 kts 290°
2026-04-24 05:17 41.72366 35.43697 23982 ft 221 kts 290°
2026-04-24 05:17 41.73098 35.41879 23984 ft 221 kts 290°
2026-04-24 05:17 41.73827 35.40066 23984 ft 221 kts 290°
2026-04-24 05:18 41.74557 35.38252 23981 ft 221 kts 290°
2026-04-24 05:18 41.75278 35.36456 23982 ft 221 kts 290°
2026-04-24 05:18 41.76007 35.34641 23983 ft 221 kts 290°
2026-04-24 05:18 41.76734 35.32828 23984 ft 221 kts 290°
2026-04-24 05:19 41.77461 35.31015 23988 ft 221 kts 290°
2026-04-24 05:19 41.78188 35.29202 23990 ft 221 kts 290°
2026-04-24 05:19 41.78913 35.27390 23990 ft 221 kts 290°
2026-04-24 05:19 41.79639 35.25577 23989 ft 221 kts 290°
2026-04-24 05:20 41.80365 35.23762 23994 ft 221 kts 290°
2026-04-24 05:20 41.81090 35.21948 23992 ft 221 kts 290°
2026-04-24 05:20 41.81814 35.20137 23992 ft 220 kts 290°
2026-04-24 05:20 41.82544 35.18329 23994 ft 221 kts 292°
2026-04-24 05:21 41.83590 35.16745 23995 ft 236 kts 311°
2026-04-24 05:21 41.85089 35.15698 23999 ft 250 kts 328°
2026-04-24 05:21 41.86742 35.14928 23997 ft 252 kts 329°
2026-04-24 05:21 41.88390 35.14177 24001 ft 252 kts 329°
2026-04-24 05:22 41.90048 35.13400 24000 ft 252 kts 329°
2026-04-24 05:22 41.91701 35.12615 24001 ft 252 kts 329°
2026-04-24 05:22 41.93359 35.11831 24003 ft 253 kts 329°
2026-04-24 05:22 41.95019 35.11049 24002 ft 253 kts 329°
2026-04-24 05:23 41.96679 35.10266 24001 ft 253 kts 329°
2026-04-24 05:23 41.98337 35.09477 24004 ft 251 kts 327°
2026-04-24 05:23 41.99804 35.08351 24003 ft 236 kts 310°
2026-04-24 05:23 42.00900 35.06817 24001 ft 226 kts 296°
2026-04-24 05:24 42.01632 35.05002 24004 ft 218 kts 283°
2026-04-24 05:24 42.01981 35.03048 24003 ft 212 kts 271°
2026-04-24 05:24 42.01968 35.01083 24001 ft 209 kts 263°
2026-04-24 05:24 42.01866 34.99131 24002 ft 210 kts 264°
2026-04-24 05:25 42.01773 34.97173 24001 ft 210 kts 264°
2026-04-24 05:25 42.01678 34.95239 24001 ft 210 kts 264°
2026-04-24 05:25 42.01577 34.93276 24001 ft 210 kts 263°
2026-04-24 05:25 42.01476 34.91307 23998 ft 210 kts 263°
2026-04-24 05:26 42.01376 34.89346 23996 ft 210 kts 264°
2026-04-24 05:26 42.01275 34.87382 23995 ft 210 kts 264°
2026-04-24 05:26 42.01174 34.85420 23994 ft 210 kts 264°
2026-04-24 05:26 42.01078 34.83450 23992 ft 211 kts 264°
2026-04-24 05:27 42.00987 34.81483 23991 ft 211 kts 264°
2026-04-24 05:27 42.00894 34.79540 23992 ft 211 kts 264°
2026-04-24 05:27 42.00799 34.77570 23990 ft 211 kts 264°
2026-04-24 05:27 42.00703 34.75590 23990 ft 212 kts 264°
2026-04-24 05:28 42.00607 34.73603 23992 ft 214 kts 264°
2026-04-24 05:28 42.00509 34.71595 23989 ft 215 kts 264°
2026-04-24 05:28 42.00411 34.69585 23991 ft 216 kts 264°
2026-04-24 05:28 42.00312 34.67566 23988 ft 217 kts 264°
2026-04-24 05:29 42.00212 34.65537 23986 ft 217 kts 264°
2026-04-24 05:29 42.00112 34.63507 23985 ft 218 kts 264°
2026-04-24 05:29 42.00012 34.61495 23983 ft 218 kts 264°
2026-04-24 05:29 41.99911 34.59453 23982 ft 219 kts 264°
2026-04-24 05:30 41.99809 34.57408 23979 ft 219 kts 264°
2026-04-24 05:30 41.99706 34.55365 23980 ft 219 kts 264°
2026-04-24 05:30 41.99604 34.53322 23985 ft 219 kts 264°
2026-04-24 05:30 41.99500 34.51274 23984 ft 220 kts 264°
2026-04-24 05:31 41.99396 34.49225 23983 ft 220 kts 264°
2026-04-24 05:31 41.99292 34.47171 23983 ft 220 kts 264°
2026-04-24 05:31 41.99189 34.45146 23983 ft 220 kts 264°
2026-04-24 05:31 41.99084 34.43091 23987 ft 220 kts 264°
2026-04-24 05:32 41.98978 34.41034 23986 ft 220 kts 264°
2026-04-24 05:32 41.98872 34.38975 23985 ft 221 kts 264°
2026-04-24 05:32 41.98765 34.36912 23982 ft 221 kts 264°
2026-04-24 05:32 41.98658 34.34852 23984 ft 221 kts 264°
2026-04-24 05:33 41.98551 34.32792 23985 ft 221 kts 264°
2026-04-24 05:33 41.98443 34.30723 23983 ft 222 kts 264°
2026-04-24 05:33 41.98336 34.28676 23983 ft 222 kts 264°
2026-04-24 05:34 41.98117 34.24528 23982 ft 222 kts 264°
2026-04-24 05:34 41.98007 34.22452 23982 ft 223 kts 264°
2026-04-24 05:34 41.97896 34.20369 23986 ft 223 kts 264°
2026-04-24 05:34 41.97785 34.18289 23999 ft 222 kts 264°
2026-04-24 05:35 41.97675 34.16223 24116 ft 221 kts 264°
2026-04-24 05:35 41.97564 34.14167 24231 ft 220 kts 264°
2026-04-24 05:35 41.97453 34.12113 24356 ft 220 kts 264°
2026-04-24 05:35 41.97345 34.10104 24583 ft 215 kts 264°
2026-04-24 05:36 41.97237 34.08117 24821 ft 212 kts 264°
2026-04-24 05:36 41.97130 34.06156 25056 ft 209 kts 264°
2026-04-24 05:36 41.97023 34.04196 25227 ft 210 kts 264°
2026-04-24 05:36 41.96916 34.02234 25405 ft 210 kts 264°
2026-04-24 05:37 41.96808 34.00266 25577 ft 212 kts 264°
2026-04-24 05:37 41.96699 33.98295 25763 ft 212 kts 264°
2026-04-24 05:37 41.96590 33.96309 25927 ft 213 kts 264°
2026-04-24 05:37 41.96482 33.94350 25973 ft 215 kts 264°
2026-04-24 05:38 41.96369 33.92329 25974 ft 218 kts 264°
2026-04-24 05:38 41.96255 33.90281 25983 ft 221 kts 264°
2026-04-24 05:38 41.96140 33.88218 25983 ft 223 kts 264°
2026-04-24 05:38 41.96023 33.86139 25988 ft 223 kts 264°
2026-04-24 05:39 41.95906 33.84055 25980 ft 224 kts 264°
2026-04-24 05:39 41.95788 33.81964 25984 ft 224 kts 264°
2026-04-24 05:39 41.95669 33.79872 25985 ft 225 kts 264°
2026-04-24 05:39 41.95551 33.77802 25988 ft 226 kts 264°
2026-04-24 05:40 41.95431 33.75686 25982 ft 227 kts 264°
2026-04-24 05:40 41.95309 33.73568 25986 ft 228 kts 264°
2026-04-24 05:40 41.95188 33.71445 25980 ft 228 kts 264°
2026-04-24 05:40 41.95064 33.69315 25989 ft 229 kts 264°
2026-04-24 05:41 41.94941 33.67186 25983 ft 229 kts 264°
2026-04-24 05:41 41.94817 33.65060 25982 ft 227 kts 265°
2026-04-24 05:41 41.94693 33.62940 25985 ft 228 kts 264°
2026-04-24 05:41 41.94568 33.60820 25981 ft 228 kts 264°
2026-04-24 05:42 41.94443 33.58693 25981 ft 228 kts 265°
2026-04-24 05:42 41.94318 33.56564 25984 ft 229 kts 264°
2026-04-24 05:42 41.94191 33.54435 25991 ft 228 kts 264°
2026-04-24 05:42 41.94065 33.52306 25983 ft 229 kts 264°
2026-04-24 05:43 41.93938 33.50170 25988 ft 229 kts 265°
2026-04-24 05:43 41.93811 33.48050 25995 ft 228 kts 264°
2026-04-24 05:43 41.93683 33.45927 25993 ft 228 kts 265°
2026-04-24 05:43 41.93556 33.43799 25995 ft 228 kts 264°
2026-04-24 05:44 41.93429 33.41700 25989 ft 229 kts 265°
2026-04-24 05:44 41.93299 33.39561 25991 ft 229 kts 265°
2026-04-24 05:44 41.93170 33.37428 25993 ft 229 kts 265°
2026-04-24 05:44 41.93040 33.35300 25994 ft 229 kts 265°
2026-04-24 05:45 41.92909 33.33157 25989 ft 231 kts 265°
2026-04-24 05:45 41.92777 33.31005 25987 ft 231 kts 265°
2026-04-24 05:45 41.92645 33.28854 25990 ft 231 kts 265°
2026-04-24 05:45 41.92512 33.26695 25986 ft 232 kts 265°
2026-04-24 05:46 41.92379 33.24540 25984 ft 232 kts 265°
2026-04-24 05:46 41.92245 33.22380 25991 ft 233 kts 265°
2026-04-24 05:46 41.92110 33.20210 25989 ft 233 kts 265°
2026-04-24 05:46 41.91974 33.18040 25988 ft 233 kts 264°
2026-04-24 05:47 41.91838 33.15871 25990 ft 233 kts 265°
2026-04-24 05:47 41.91702 33.13702 25989 ft 233 kts 265°
2026-04-24 05:47 41.91565 33.11529 25994 ft 234 kts 265°
2026-04-24 05:47 41.91428 33.09355 25994 ft 234 kts 265°
2026-04-24 05:48 41.91289 33.07172 25986 ft 235 kts 266°
2026-04-24 05:48 41.91151 33.04999 25988 ft 238 kts 266°
2026-04-24 05:48 41.91010 33.02777 25989 ft 240 kts 266°
2026-04-24 05:48 41.90866 33.00530 25988 ft 242 kts 266°
2026-04-24 05:49 41.90722 32.98278 25986 ft 243 kts 266°
2026-04-24 05:49 41.90576 32.96012 25989 ft 244 kts 266°
2026-04-24 05:49 41.90430 32.93746 25987 ft 244 kts 266°
2026-04-24 05:49 41.90283 32.91473 25988 ft 245 kts 266°
2026-04-24 05:50 41.90135 32.89194 25982 ft 245 kts 266°
2026-04-24 05:50 41.89988 32.86944 25984 ft 245 kts 266°
2026-04-24 05:50 41.89839 32.84663 25984 ft 245 kts 266°
2026-04-24 05:50 41.89689 32.82378 25984 ft 245 kts 266°
2026-04-24 05:51 41.89539 32.80091 25986 ft 245 kts 266°
2026-04-24 05:51 41.89388 32.77809 25986 ft 245 kts 266°
2026-04-24 05:51 41.89237 32.75524 25985 ft 245 kts 266°
2026-04-24 05:51 41.89085 32.73242 25983 ft 245 kts 266°
2026-04-24 05:52 41.88934 32.70968 25985 ft 246 kts 266°
2026-04-24 05:52 41.88782 32.68687 25985 ft 246 kts 266°
2026-04-24 05:52 41.88629 32.66411 25983 ft 246 kts 266°
2026-04-24 05:52 41.88475 32.64113 25980 ft 246 kts 266°
2026-04-24 05:53 41.88323 32.61863 25982 ft 246 kts 266°
2026-04-24 05:53 41.88167 32.59543 25984 ft 246 kts 266°
2026-04-24 05:53 41.88012 32.57259 25984 ft 246 kts 266°
2026-04-24 05:53 41.87857 32.54978 25982 ft 246 kts 266°
2026-04-24 05:54 41.87701 32.52701 25987 ft 246 kts 266°
2026-04-24 05:54 41.87597 32.51178 25987 ft 246 kts 266°
2026-04-24 05:54 41.87442 32.48902 25988 ft 247 kts 266°
2026-04-24 05:54 41.87330 32.46579 25985 ft 245 kts 273°
2026-04-24 05:55 41.87654 32.44371 25986 ft 245 kts 287°
2026-04-24 05:55 41.88183 32.42177 25988 ft 245 kts 287°
2026-04-24 05:55 41.88703 32.40008 25987 ft 245 kts 287°
2026-04-24 05:55 41.89226 32.37806 25988 ft 246 kts 287°
2026-04-24 05:56 41.89736 32.35659 25986 ft 246 kts 287°
2026-04-24 05:56 41.90271 32.33446 25988 ft 246 kts 287°
2026-04-24 05:56 41.90798 32.31268 25988 ft 246 kts 287°
2026-04-24 05:56 41.91324 32.29085 25987 ft 246 kts 287°
2026-04-24 05:57 41.91843 32.26923 25985 ft 246 kts 287°
2026-04-24 05:57 41.92372 32.24723 25983 ft 246 kts 287°
2026-04-24 05:57 41.92896 32.22537 25984 ft 246 kts 287°
2026-04-24 05:57 41.93414 32.20359 25984 ft 245 kts 287°
2026-04-24 05:58 41.93925 32.18203 25985 ft 245 kts 287°
2026-04-24 05:58 41.94443 32.16022 25985 ft 245 kts 287°
2026-04-24 05:58 41.94961 32.13839 25983 ft 245 kts 287°
2026-04-24 05:58 41.95484 32.11630 25981 ft 245 kts 287°
2026-04-24 05:59 41.95996 32.09467 25985 ft 245 kts 287°
2026-04-24 05:59 41.96519 32.07257 25985 ft 245 kts 287°
2026-04-24 05:59 41.97034 32.05074 25986 ft 245 kts 287°
2026-04-24 05:59 41.97543 32.02915 25985 ft 245 kts 287°
2026-04-24 06:00 41.98060 32.00724 25985 ft 245 kts 287°
2026-04-24 06:00 41.98577 31.98529 25984 ft 245 kts 287°
2026-04-24 06:00 41.99090 31.96351 25984 ft 245 kts 287°
2026-04-24 06:00 41.99600 31.94180 25986 ft 245 kts 287°
2026-04-24 06:01 42.00121 31.91962 25982 ft 245 kts 287°
2026-04-24 06:01 42.00631 31.89789 25984 ft 245 kts 287°
2026-04-24 06:01 42.01138 31.87626 25982 ft 245 kts 287°
2026-04-24 06:01 42.01658 31.85411 25983 ft 245 kts 287°
2026-04-24 06:02 42.02170 31.83227 25979 ft 245 kts 287°
2026-04-24 06:02 42.02676 31.81069 25982 ft 245 kts 287°
2026-04-24 06:02 42.03187 31.78885 25983 ft 245 kts 287°
2026-04-24 06:02 42.03700 31.76694 25982 ft 245 kts 287°
2026-04-24 06:03 42.04211 31.74506 25982 ft 245 kts 287°
2026-04-24 06:03 42.04721 31.72322 25983 ft 245 kts 287°
2026-04-24 06:03 42.05230 31.70136 25982 ft 245 kts 287°
2026-04-24 06:03 42.05734 31.67973 25981 ft 245 kts 287°
2026-04-24 06:04 42.06242 31.65790 25987 ft 245 kts 287°
2026-04-24 06:04 42.06751 31.63603 25984 ft 245 kts 287°
2026-04-24 06:04 42.07259 31.61416 25986 ft 245 kts 287°
2026-04-24 06:04 42.07766 31.59228 25984 ft 245 kts 287°
2026-04-24 06:05 42.08275 31.57034 25984 ft 245 kts 287°
2026-04-24 06:05 42.08781 31.54847 25985 ft 245 kts 287°
2026-04-24 06:05 42.09288 31.52657 25986 ft 245 kts 287°
2026-04-24 06:05 42.09786 31.50465 25984 ft 244 kts 285°
2026-04-24 06:06 42.10143 31.48258 25985 ft 244 kts 280°
2026-04-24 06:06 42.10416 31.45996 25985 ft 244 kts 279°
2026-04-24 06:06 42.10707 31.43743 25983 ft 244 kts 281°
2026-04-24 06:06 42.11286 31.41623 25977 ft 243 kts 297°
2026-04-24 06:07 42.12114 31.39661 25981 ft 243 kts 297°
2026-04-24 06:07 42.12807 31.37590 25984 ft 243 kts 289°
2026-04-24 06:07 42.13304 31.35411 25985 ft 243 kts 285°
2026-04-24 06:07 42.13757 31.33219 25984 ft 244 kts 286°
2026-04-24 06:08 42.14251 31.31031 25984 ft 244 kts 287°
2026-04-24 06:08 42.14763 31.28842 25985 ft 244 kts 287°
2026-04-24 06:08 42.15268 31.26648 25984 ft 245 kts 287°
2026-04-24 06:08 42.15768 31.24450 25984 ft 245 kts 287°
2026-04-24 06:09 42.16267 31.22259 25980 ft 245 kts 287°
2026-04-24 06:09 42.16768 31.20059 25981 ft 245 kts 287°
2026-04-24 06:09 42.17269 31.17862 25980 ft 245 kts 287°
2026-04-24 06:09 42.17770 31.15660 25982 ft 245 kts 287°
2026-04-24 06:10 42.18264 31.13486 25980 ft 245 kts 287°
2026-04-24 06:10 42.18763 31.11286 25981 ft 245 kts 287°
2026-04-24 06:10 42.19263 31.09083 25978 ft 245 kts 287°
2026-04-24 06:11 42.20261 31.04673 25979 ft 246 kts 287°
2026-04-24 06:11 42.20760 31.02468 25980 ft 246 kts 287°
2026-04-24 06:11 42.21257 31.00268 25977 ft 246 kts 287°
2026-04-24 06:11 42.21755 30.98061 25977 ft 245 kts 287°
2026-04-24 06:12 42.22251 30.95857 25975 ft 245 kts 287°
2026-04-24 06:12 42.22748 30.93654 25974 ft 245 kts 287°
2026-04-24 06:12 42.23238 30.91472 25973 ft 245 kts 287°
2026-04-24 06:12 42.23733 30.89270 25973 ft 245 kts 287°
2026-04-24 06:13 42.24230 30.87057 25974 ft 245 kts 287°
2026-04-24 06:13 42.24726 30.84847 25973 ft 246 kts 287°
2026-04-24 06:13 42.25221 30.82635 25971 ft 246 kts 287°
2026-04-24 06:13 42.25716 30.80426 25969 ft 246 kts 287°
2026-04-24 06:14 42.26204 30.78242 25968 ft 246 kts 287°
2026-04-24 06:14 42.26699 30.76027 25970 ft 246 kts 287°
2026-04-24 06:14 42.27193 30.73812 25969 ft 246 kts 287°
2026-04-24 06:14 42.27687 30.71596 25969 ft 246 kts 287°
2026-04-24 06:15 42.28181 30.69378 25968 ft 246 kts 287°
2026-04-24 06:15 42.28675 30.67157 25968 ft 247 kts 287°
2026-04-24 06:15 42.29169 30.64933 25969 ft 247 kts 288°
2026-04-24 06:15 42.29656 30.62743 25968 ft 247 kts 288°
2026-04-24 06:16 42.30154 30.60495 25965 ft 246 kts 288°
2026-04-24 06:16 42.30646 30.58277 25967 ft 246 kts 288°
2026-04-24 06:16 42.31130 30.56091 25964 ft 246 kts 288°
2026-04-24 06:16 42.31620 30.53872 25964 ft 247 kts 288°
2026-04-24 06:17 42.32111 30.51650 25964 ft 247 kts 288°
2026-04-24 06:17 42.32602 30.49424 25964 ft 247 kts 288°
2026-04-24 06:17 42.33092 30.47199 25964 ft 247 kts 288°
2026-04-24 06:17 42.33583 30.44972 25962 ft 247 kts 288°
2026-04-24 06:18 42.34071 30.42753 25965 ft 246 kts 288°
2026-04-24 06:18 42.34560 30.40528 25960 ft 246 kts 288°
2026-04-24 06:18 42.35041 30.38335 25962 ft 247 kts 288°
2026-04-24 06:18 42.35529 30.36109 25960 ft 247 kts 288°
2026-04-24 06:19 42.36017 30.33884 25960 ft 247 kts 288°
2026-04-24 06:19 42.36505 30.31654 25960 ft 247 kts 288°
2026-04-24 06:19 42.36991 30.29428 25961 ft 247 kts 288°
2026-04-24 06:19 42.37479 30.27195 25958 ft 247 kts 288°
2026-04-24 06:20 42.37965 30.24965 25959 ft 247 kts 288°
2026-04-24 06:20 42.38452 30.22734 25960 ft 247 kts 288°
2026-04-24 06:20 42.38937 30.20505 25959 ft 247 kts 288°
2026-04-24 06:20 42.39423 30.18269 25960 ft 247 kts 288°
2026-04-24 06:21 42.39908 30.16038 25958 ft 247 kts 288°
2026-04-24 06:21 42.40392 30.13807 25958 ft 247 kts 288°
2026-04-24 06:21 42.40876 30.11575 25958 ft 247 kts 288°
2026-04-24 06:21 42.41358 30.09347 25959 ft 247 kts 288°
2026-04-24 06:22 42.41841 30.07116 25954 ft 247 kts 288°
2026-04-24 06:22 42.42323 30.04884 25953 ft 247 kts 288°
2026-04-24 06:22 42.42800 30.02677 25953 ft 247 kts 288°
2026-04-24 06:22 42.43281 30.00443 25954 ft 247 kts 288°
2026-04-24 06:23 42.43764 29.98203 25955 ft 247 kts 288°
2026-04-24 06:23 42.44244 29.95972 25959 ft 247 kts 288°
2026-04-24 06:23 42.44719 29.93764 25958 ft 247 kts 288°
2026-04-24 06:23 42.45198 29.91530 25959 ft 247 kts 288°
2026-04-24 06:24 42.45678 29.89292 25958 ft 247 kts 288°
2026-04-24 06:24 42.46182 29.87067 25956 ft 246 kts 293°
2026-04-24 06:24 42.46959 29.85016 25961 ft 245 kts 300°
2026-04-24 06:24 42.47778 29.82988 25961 ft 245 kts 300°
2026-04-24 06:25 42.48590 29.80953 25958 ft 245 kts 299°
2026-04-24 06:25 42.49400 29.78913 25956 ft 245 kts 299°
2026-04-24 06:25 42.50212 29.76874 25957 ft 246 kts 300°
2026-04-24 06:25 42.51014 29.74859 25957 ft 246 kts 300°
2026-04-24 06:26 42.51828 29.72813 25959 ft 246 kts 300°
2026-04-24 06:26 42.52642 29.70766 25956 ft 246 kts 300°
2026-04-24 06:26 42.53451 29.68727 25959 ft 246 kts 300°
2026-04-24 06:26 42.54263 29.66682 25957 ft 246 kts 300°
2026-04-24 06:27 42.55075 29.64634 25960 ft 246 kts 300°
2026-04-24 06:27 42.55878 29.62607 25958 ft 246 kts 300°
2026-04-24 06:27 42.56690 29.60558 25958 ft 246 kts 300°
2026-04-24 06:27 42.57500 29.58511 25959 ft 246 kts 300°
2026-04-24 06:28 42.58305 29.56462 25960 ft 246 kts 298°
2026-04-24 06:28 42.58839 29.54253 25965 ft 247 kts 285°
2026-04-24 06:28 42.59204 29.51970 25964 ft 247 kts 285°
2026-04-24 06:28 42.59579 29.49690 25966 ft 248 kts 285°
2026-04-24 06:29 42.59957 29.47407 25967 ft 248 kts 285°
2026-04-24 06:29 42.60328 29.45145 25969 ft 248 kts 285°
2026-04-24 06:29 42.60702 29.42856 25967 ft 248 kts 285°
2026-04-24 06:29 42.61077 29.40564 25967 ft 248 kts 285°
2026-04-24 06:30 42.61451 29.38271 25966 ft 248 kts 285°
2026-04-24 06:30 42.61825 29.35978 25966 ft 248 kts 285°
2026-04-24 06:30 42.62199 29.33681 25965 ft 249 kts 285°
2026-04-24 06:30 42.62573 29.31384 25965 ft 249 kts 285°
2026-04-24 06:31 42.62946 29.29085 25964 ft 249 kts 285°
2026-04-24 06:31 42.63320 29.26784 25962 ft 250 kts 285°
2026-04-24 06:31 42.63693 29.24481 25960 ft 250 kts 285°
2026-04-24 06:31 42.64061 29.22203 25961 ft 250 kts 285°
2026-04-24 06:32 42.64434 29.19897 25964 ft 250 kts 286°
2026-04-24 06:32 42.64806 29.17591 25962 ft 250 kts 286°
2026-04-24 06:32 42.65177 29.15284 25962 ft 250 kts 286°
2026-04-24 06:32 42.65549 29.12976 25962 ft 250 kts 286°
2026-04-24 06:33 42.65920 29.10665 25964 ft 250 kts 286°
2026-04-24 06:33 42.66291 29.08353 25964 ft 250 kts 286°
2026-04-24 06:33 42.66662 29.06037 25964 ft 250 kts 286°
2026-04-24 06:33 42.67031 29.03729 25963 ft 250 kts 286°
2026-04-24 06:34 42.67401 29.01414 25962 ft 250 kts 286°
2026-04-24 06:34 42.67769 28.99105 25963 ft 250 kts 286°
2026-04-24 06:34 42.68136 28.96800 25962 ft 250 kts 286°
2026-04-24 06:34 42.68504 28.94493 25961 ft 250 kts 286°
2026-04-24 06:35 42.68870 28.92185 25966 ft 250 kts 286°
2026-04-24 06:35 42.69233 28.89902 25966 ft 250 kts 286°
2026-04-24 06:35 42.69601 28.87582 25807 ft 253 kts 286°
2026-04-24 06:35 42.69977 28.85221 25483 ft 257 kts 286°
2026-04-24 06:36 42.70352 28.82845 25161 ft 257 kts 286°
2026-04-24 06:36 42.70727 28.80463 24845 ft 257 kts 287°
2026-04-24 06:36 42.71100 28.78097 24530 ft 255 kts 287°
2026-04-24 06:36 42.71469 28.75747 24222 ft 254 kts 287°
2026-04-24 06:37 42.71839 28.73397 23912 ft 252 kts 287°
2026-04-24 06:37 42.72206 28.71060 23606 ft 252 kts 287°
2026-04-24 06:37 42.72570 28.68736 23257 ft 251 kts 287°
2026-04-24 06:37 42.72933 28.66413 22899 ft 250 kts 287°
2026-04-24 06:38 42.73294 28.64103 22544 ft 249 kts 287°
2026-04-24 06:38 42.73649 28.61831 22195 ft 248 kts 287°
2026-04-24 06:38 42.74011 28.59508 21844 ft 247 kts 287°
2026-04-24 06:38 42.74362 28.57250 21504 ft 247 kts 286°
2026-04-24 06:39 42.74720 28.54945 21166 ft 249 kts 286°
2026-04-24 06:39 42.75078 28.52640 20826 ft 249 kts 286°
2026-04-24 06:39 42.75436 28.50325 20501 ft 249 kts 286°
2026-04-24 06:39 42.75793 28.48015 20190 ft 248 kts 285°
2026-04-24 06:40 42.76143 28.45752 19895 ft 247 kts 285°
2026-04-24 06:40 42.76495 28.43471 19634 ft 245 kts 285°
2026-04-24 06:40 42.76844 28.41204 19359 ft 246 kts 285°
2026-04-24 06:40 42.77198 28.38905 19046 ft 250 kts 285°
2026-04-24 06:41 42.77555 28.36579 18735 ft 251 kts 285°
2026-04-24 06:41 42.77913 28.34247 18426 ft 252 kts 284°
2026-04-24 06:41 42.78149 28.32700 18218 ft 252 kts 284°
2026-04-24 06:41 42.78506 28.30368 17860 ft 251 kts 284°
2026-04-24 06:42 42.78978 28.27276 17399 ft 252 kts 285°
2026-04-24 06:42 42.79334 28.24944 17052 ft 252 kts 285°
2026-04-24 06:42 42.79575 28.23361 16822 ft 252 kts 285°
2026-04-24 06:42 42.79926 28.21053 16486 ft 252 kts 285°
2026-04-24 06:43 42.80281 28.18717 16154 ft 252 kts 285°
2026-04-24 06:43 42.80413 28.16329 15821 ft 257 kts 270°
2026-04-24 06:43 42.79989 28.13945 15494 ft 262 kts 252°
2026-04-24 06:43 42.79032 28.11833 15169 ft 265 kts 234°
2026-04-24 06:44 42.77707 28.10107 14853 ft 261 kts 226°
2026-04-24 06:44 42.76381 28.08481 14535 ft 253 kts 227°
2026-04-24 06:44 42.75081 28.06871 14220 ft 252 kts 227°
2026-04-24 06:44 42.73784 28.05258 13908 ft 253 kts 227°
2026-04-24 06:45 42.72483 28.03644 13572 ft 253 kts 227°
2026-04-24 06:45 42.71177 28.02030 13218 ft 253 kts 226°
2026-04-24 06:45 42.70226 28.00850 12960 ft 251 kts 227°
2026-04-24 06:45 42.69020 27.99213 12625 ft 249 kts 229°
2026-04-24 06:46 42.67783 27.97567 12285 ft 249 kts 228°
2026-04-24 06:46 42.66563 27.95944 11951 ft 248 kts 228°
2026-04-24 06:46 42.65327 27.94287 11619 ft 251 kts 228°
2026-04-24 06:46 42.64084 27.92618 11293 ft 252 kts 227°
2026-04-24 06:47 42.62984 27.90814 10956 ft 246 kts 244°
2026-04-24 06:47 42.62498 27.88624 10626 ft 241 kts 267°
2026-04-24 06:47 42.62674 27.86401 10308 ft 236 kts 289°
2026-04-24 06:47 42.63465 27.84448 9987 ft 238 kts 310°
2026-04-24 06:48 42.64759 27.83050 9642 ft 240 kts 332°
2026-04-24 06:48 42.66359 27.82444 9288 ft 241 kts 354°
2026-04-24 06:48 42.67999 27.82730 8939 ft 242 kts 17°
2026-04-24 06:48 42.69450 27.83886 8590 ft 243 kts 39°
2026-04-24 06:49 42.70659 27.85482 8260 ft 242 kts 43°
2026-04-24 06:49 42.71853 27.87113 7915 ft 243 kts 43°
2026-04-24 06:49 42.73051 27.88728 7588 ft 241 kts 42°
2026-04-24 06:49 42.74397 27.90025 7259 ft 236 kts 21°
2026-04-24 06:50 42.75964 27.90500 6934 ft 232 kts 360°
2026-04-24 06:50 42.77540 27.90138 6630 ft 230 kts 338°
2026-04-24 06:50 42.78885 27.89011 6339 ft 228 kts 317°
2026-04-24 06:50 42.79819 27.87301 6074 ft 225 kts 296°
2026-04-24 06:51 42.80223 27.85247 5815 ft 226 kts 275°
2026-04-24 06:51 42.80042 27.83124 5511 ft 228 kts 254°
2026-04-24 06:51 42.79286 27.81226 5210 ft 231 kts 232°
2026-04-24 06:51 42.78151 27.79658 4922 ft 233 kts 227°
2026-04-24 06:52 42.76987 27.78115 4599 ft 233 kts 226°
2026-04-24 06:52 42.75841 27.76578 4290 ft 230 kts 226°
2026-04-24 06:52 42.74706 27.75050 3982 ft 229 kts 226°
2026-04-24 06:52 42.73582 27.73543 3673 ft 229 kts 226°
2026-04-24 06:53 42.72444 27.72021 3434 ft 227 kts 226°
2026-04-24 06:53 42.71330 27.70555 3426 ft 218 kts 226°
2026-04-24 06:53 42.70247 27.69140 3248 ft 218 kts 226°
2026-04-24 06:53 42.69144 27.67649 3010 ft 228 kts 227°
2026-04-24 06:54 42.68002 27.66120 2731 ft 233 kts 226°
2026-04-24 06:54 42.66833 27.64583 2484 ft 234 kts 226°
2026-04-24 06:54 42.65669 27.63017 2259 ft 237 kts 227°
2026-04-24 06:54 42.64534 27.61516 1966 ft 216 kts 226°
2026-04-24 06:55 42.63513 27.60155 1673 ft 200 kts 227°
2026-04-24 06:55 42.62558 27.58879 1418 ft 185 kts 227°
2026-04-24 06:55 42.61689 27.57726 1176 ft 157 kts 226°
2026-04-24 06:55 42.60987 27.56801 972 ft 123 kts 227°
2026-04-24 06:56 42.60437 27.56066 841 ft 104 kts 227°
2026-04-24 06:56 42.59911 27.55399 662 ft 102 kts 224°
2026-04-24 06:56 42.59409 27.54750 538 ft 97 kts 226°
2026-04-24 06:56 42.58947 27.54115 398 ft 94 kts 228°
2026-04-24 06:57 42.58498 27.53514 304 ft 88 kts 226°
2026-04-24 06:57 42.58066 27.52938 206 ft 86 kts 226°
2026-04-24 06:57 42.57675 27.52394 171 ft 68 kts 223°
2026-04-24 06:57 42.57465 27.52127 169 ft 35 kts 225°
2026-04-24 06:58 42.57318 27.51932 168 ft 28 kts 224°
2026-04-24 06:58 42.57178 27.51746 170 ft 28 kts 219°
2026-04-24 06:58 42.57037 27.51565 172 ft 28 kts 228°
2026-04-24 06:58 42.56922 27.51430 170 ft 13 kts 193°
2026-04-24 06:59 42.56833 27.51481 170 ft 18 kts 137°
2026-04-24 06:59 42.56824 27.51494 170 ft 0 kts 135°
2026-04-24 07:01 42.56802 27.51523 170 ft 9 kts 135°
2026-04-24 07:01 42.56747 27.51598 170 ft 8 kts 135°
2026-04-24 07:01 42.56740 27.51679 170 ft 11 kts 52°
2026-04-24 07:01 42.56793 27.51762 170 ft 13 kts 50°
2026-04-24 07:02 42.56838 27.51833 170 ft 12 kts 48°
2026-04-24 07:02 42.56901 27.51908 170 ft 11 kts 47°
2026-04-24 07:02 42.56871 27.51993 170 ft 12 kts 133°
2026-04-24 07:02 42.56829 27.52037 170 ft 7 kts 195°
2026-04-24 07:03 42.56802 27.51994 170 ft 0 kts 223°
2026-04-24 07:03 42.56797 27.51987 170 ft 0 kts 225°